Date_and_time,latitude,longitude,wind_speed,RelWindDirFrom,WindDirFrom,air_pressure,air_temperature,relative_humidity,Temp,platform_speed_wrt_ground,air_pressure_at_mean_sea_level,platform_orientation
2019-08-29 23:40,50.6304483333333,-96.9807666666667,12.4,22.6,289,984.86,18.4,33,18.39,0.0,1010.85,192.6
2019-08-29 23:50,50.6304666666667,-96.980765,11.8,20.4,284,984.94,18.3,34,18.38,0.0,1010.93,192.6
2019-08-30 00:00,50.630455,-96.9807666666667,12.7,22.4,295,984.93,18.3,34,18.38,0.0,1010.92,360.0
2019-08-30 00:10,50.6304533333333,-96.98077,11.9,18.2,297,985.13,18.1,34,18.39,0.0,1011.14,360.0
2019-08-30 00:20,50.63045,-96.9807733333333,9.1,15.4,298,985.38,18.0,35,18.38,0.0,1011.40,360.0
2019-08-30 00:30,50.6304483333333,-96.9807766666667,7.9,14.1,298,985.54,17.8,36,18.39,0.0,1011.58,360.0
2019-08-30 00:40,50.63045,-96.9807766666667,9.6,15.7,296,985.61,17.7,36,18.40,0.0,1011.66,360.0
2019-08-30 00:50,50.6304483333333,-96.980775,10.7,17.5,291,985.69,17.5,36,18.37,0.0,1011.74,360.0
2019-08-30 01:00,50.6304483333333,-96.980775,8.6,15.3,294,985.89,17.3,37,18.35,0.0,1011.96,20.1
2019-08-30 01:10,50.6304483333333,-96.9807733333333,7.1,10.1,294,986.01,17.0,38,18.33,0.0,1012.11,20.1
2019-08-30 01:20,50.6304483333333,-96.9807733333333,6.8,11.3,288,986.13,16.6,39,18.35,0.0,1012.25,20.1
2019-08-30 01:30,50.6304483333333,-96.9807733333333,7.4,11.8,289,986.20,16.3,40,18.34,0.0,1012.34,20.1
2019-08-30 01:40,50.6304483333333,-96.9807733333333,7.0,11.5,287,986.35,16.1,41,18.31,0.0,1012.50,20.1
2019-08-30 01:50,50.63045,-96.9807733333333,6.1,10.0,291,986.50,15.8,42,18.30,0.0,1012.67,20.1
2019-08-30 02:00,50.6304483333333,-96.9807733333333,5.7,9.4,290,986.62,15.5,43,18.27,0.0,1012.82,54.7
2019-08-30 02:10,50.6304483333333,-96.9807733333333,4.3,7.4,281,986.79,15.2,45,18.25,0.0,1013.01,54.7
2019-08-30 02:20,50.6304633333333,-96.9807816666667,3.8,6.6,274,986.92,14.8,47,18.24,0.0,1013.18,54.7
2019-08-30 02:30,50.6304533333333,-96.9807716666667,3.5,6.2,268,987.00,14.2,49,18.28,0.0,1013.28,54.7
2019-08-30 02:40,50.6304566666667,-96.9807716666667,3.8,5.7,258,987.14,13.9,50,18.30,0.0,1013.45,54.7
2019-08-30 02:50,50.6304566666667,-96.9807683333333,4.5,7.3,254,987.23,13.6,51,18.26,0.0,1013.57,54.7
2019-08-30 03:00,50.6304566666667,-96.9807683333333,5.1,7.5,257,987.29,13.5,51,18.23,0.0,1013.65,0.0
2019-08-30 03:10,50.6304566666667,-96.98077,4.8,6.9,261,987.29,13.3,52,18.26,0.0,1013.68,0.0
2019-08-30 03:20,50.6304566666667,-96.98077,4.7,7.5,260,987.34,13.2,53,18.29,0.0,1013.74,0.0
2019-08-30 03:30,50.630455,-96.98077,4.6,7.2,262,987.41,13.0,54,18.29,0.0,1013.83,0.0
2019-08-30 03:40,50.630455,-96.98077,4.8,7.1,262,987.45,12.9,54,18.27,0.0,1013.90,0.0
2019-08-30 03:50,50.6304533333333,-96.98077,4.7,7.3,255,987.51,12.7,55,18.24,0.0,1013.98,0.0
2019-08-30 04:00,50.6304533333333,-96.9807716666667,5.5,7.9,254,987.54,12.6,55,18.22,0.0,1014.03,38.0
2019-08-30 04:10,50.6304316666667,-96.98079,5.0,6.9,249,987.60,12.4,56,18.21,0.0,1014.13,38.0
2019-08-30 04:20,50.63045,-96.9807833333333,5.1,7.7,249,987.66,12.1,57,18.20,0.0,1014.22,38.0
2019-08-30 04:30,50.6304533333333,-96.98078,5.1,8.0,250,987.70,12.0,58,18.19,0.0,1014.29,38.0
2019-08-30 04:40,50.6304533333333,-96.98078,5.7,8.6,252,987.77,11.9,58,18.19,0.0,1014.38,38.0
2019-08-30 04:50,50.6304533333333,-96.9807816666667,5.8,8.6,257,987.74,11.9,58,18.18,0.0,1014.35,38.0
2019-08-30 05:00,50.6304516666667,-96.9807816666667,5.0,7.4,262,987.66,12.0,58,18.18,0.0,1014.27,305.3
2019-08-30 05:10,50.6304516666667,-96.9807816666667,5.1,7.8,259,987.71,11.9,59,18.17,0.0,1014.34,305.3
2019-08-30 05:20,50.6304533333333,-96.9807816666667,5.3,7.5,261,987.80,11.8,59,18.17,0.0,1014.44,305.3
2019-08-30 05:30,50.6304533333333,-96.9807816666667,5.8,8.5,257,987.82,11.7,59,18.18,0.0,1014.47,305.3
2019-08-30 05:40,50.6304533333333,-96.9807833333333,5.8,8.5,259,987.88,11.6,59,18.18,0.0,1014.55,305.3
2019-08-30 05:50,50.6304533333333,-96.9807816666667,5.8,8.8,262,987.94,11.5,60,18.17,0.0,1014.62,305.3
2019-08-30 06:00,50.6304533333333,-96.9807816666667,5.3,7.9,264,988.06,11.4,61,18.16,0.0,1014.75,270.0
2019-08-30 06:10,50.630455,-96.9807816666667,5.4,9.1,265,988.18,11.4,61,18.15,0.0,1014.88,270.0
2019-08-30 06:20,50.6304533333333,-96.98078,6.6,9.6,271,988.21,11.3,61,18.15,0.0,1014.93,270.0
2019-08-30 06:30,50.6304533333333,-96.98078,5.9,9.4,270,988.30,11.3,62,18.14,0.0,1015.03,270.0
2019-08-30 06:40,50.6304383333333,-96.9807616666667,5.8,8.5,270,988.37,11.3,62,18.14,0.0,1015.11,270.0
2019-08-30 06:50,50.6304516666667,-96.9807716666667,5.7,8.7,269,988.45,11.3,62,18.11,0.0,1015.18,270.0
2019-08-30 07:00,50.630445,-96.9807683333333,6.0,9.0,272,988.50,11.4,63,18.07,0.0,1015.23,165.5
2019-08-30 07:10,50.6304466666667,-96.9807733333333,5.7,9.0,269,988.51,11.4,64,18.05,0.0,1015.25,165.5
2019-08-30 07:20,50.6304466666667,-96.980775,5.7,8.3,274,988.52,11.4,64,18.03,0.0,1015.26,165.5
2019-08-30 07:30,50.6304466666667,-96.980775,6.1,9.5,272,988.61,11.5,65,18.01,0.0,1015.35,165.5
2019-08-30 07:40,50.630445,-96.9807733333333,6.0,8.9,270,988.64,11.4,66,18.00,0.0,1015.38,165.5
2019-08-30 07:50,50.6304466666667,-96.9807733333333,5.8,9.2,270,988.64,11.4,68,17.99,0.0,1015.40,165.5
2019-08-30 08:00,50.6304533333333,-96.98076,6.1,9.7,269,988.67,11.4,69,17.97,0.0,1015.42,90.0
2019-08-30 08:10,50.6304433333333,-96.980805,6.3,10.5,268,988.71,11.3,70,17.97,0.0,1015.48,90.0
2019-08-30 08:20,50.6304433333333,-96.9807816666667,5.9,9.9,270,988.87,11.3,71,17.96,0.0,1015.64,90.0
2019-08-30 08:30,50.630445,-96.9807816666667,5.9,8.6,272,988.99,11.2,71,17.95,0.0,1015.77,90.0
2019-08-30 08:40,50.6304466666667,-96.9807783333333,5.9,8.9,271,989.11,11.1,72,17.94,0.0,1015.90,90.0
2019-08-30 08:50,50.6304483333333,-96.98078,6.2,9.0,274,989.15,11.0,73,17.92,0.0,1015.93,90.0
2019-08-30 09:00,50.6304483333333,-96.9807766666667,6.4,9.2,274,989.23,10.9,73,17.90,0.0,1016.03,119.2
2019-08-30 09:10,50.6304483333333,-96.9807766666667,5.3,8.0,267,989.39,10.8,74,17.89,0.0,1016.19,119.2
2019-08-30 09:20,50.6304483333333,-96.980775,5.7,8.6,263,989.52,10.8,75,17.88,0.0,1016.32,119.2
2019-08-30 09:30,50.6304483333333,-96.9807716666667,5.7,8.0,265,989.61,10.8,74,17.87,0.0,1016.41,119.2
2019-08-30 09:40,50.6304483333333,-96.9807716666667,5.4,9.5,265,989.64,10.8,76,17.87,0.0,1016.46,119.2
2019-08-30 09:50,50.6304483333333,-96.9807716666667,5.9,8.7,265,989.64,10.7,76,17.88,0.0,1016.46,119.2
2019-08-30 10:00,50.6304683333333,-96.9808266666667,5.9,8.5,266,989.69,10.6,77,17.86,0.0,1016.51,306.1
2019-08-30 10:10,50.630455,-96.9807883333333,5.5,8.3,270,989.78,10.5,78,17.84,0.0,1016.62,306.1
2019-08-30 10:20,50.630455,-96.98079,5.6,8.7,263,989.83,10.4,79,17.83,0.0,1016.68,306.1
2019-08-30 10:30,50.6304533333333,-96.9807883333333,5.9,8.4,259,989.97,10.4,79,17.82,0.0,1016.82,306.1
2019-08-30 10:40,50.6304533333333,-96.9807833333333,5.9,9.1,259,990.07,10.3,80,17.81,0.0,1016.93,306.1
2019-08-30 10:50,50.6304516666667,-96.98078,5.3,7.6,261,990.09,10.2,81,17.80,0.0,1016.97,306.1
2019-08-30 11:00,50.6304516666667,-96.9807783333333,5.7,8.2,259,990.18,10.1,81,17.78,0.0,1017.07,270.0
2019-08-30 11:10,50.6304483333333,-96.980765,6.0,8.7,255,990.29,9.9,82,17.77,0.0,1017.19,270.0
2019-08-30 11:20,50.6304633333333,-96.9807683333333,5.5,8.0,262,990.41,9.8,83,17.77,0.0,1017.32,270.0
2019-08-30 11:30,50.63046,-96.9807683333333,5.7,8.1,262,990.51,9.6,85,17.76,0.0,1017.44,270.0
2019-08-30 11:40,50.6304583333333,-96.9807683333333,5.8,8.5,261,990.69,9.5,86,17.76,0.0,1017.62,270.0
2019-08-30 11:50,50.6304583333333,-96.9807716666667,5.9,8.8,264,990.81,9.5,86,17.78,0.0,1017.75,270.0
2019-08-30 12:00,50.6304433333333,-96.9807633333333,6.1,8.9,257,990.99,9.5,86,17.82,0.0,1017.95,167.4
2019-08-30 12:10,50.630465,-96.980765,6.2,8.6,256,991.10,9.5,86,17.84,0.0,1018.06,167.4
2019-08-30 12:20,50.6304533333333,-96.98077,6.1,8.7,254,991.18,9.6,86,17.84,0.0,1018.14,167.4
2019-08-30 12:30,50.63045,-96.9807666666667,6.3,8.8,256,991.28,9.7,87,17.83,0.0,1018.24,167.4
2019-08-30 12:40,50.6304466666667,-96.9807666666667,5.6,8.0,263,991.32,10.0,86,17.82,0.0,1018.27,167.4
2019-08-30 12:50,50.6304466666667,-96.9807683333333,6.0,8.8,264,991.43,10.3,85,17.81,0.0,1018.37,167.4
2019-08-30 13:00,50.6304483333333,-96.9807966666667,6.2,9.7,267,991.56,10.6,84,17.81,0.0,1018.51,143.4
2019-08-30 13:10,50.630445,-96.9807683333333,6.8,10.5,265,991.63,10.9,83,17.81,0.0,1018.56,143.4
2019-08-30 13:20,50.6304416666667,-96.9807883333333,6.7,10.5,264,991.74,11.4,81,17.80,0.0,1018.66,143.4
2019-08-30 13:30,50.6304266666667,-96.980785,7.9,11.1,268,991.82,11.7,80,17.79,0.0,1018.74,143.4
2019-08-30 13:40,50.6304416666667,-96.9807816666667,7.3,11.4,267,991.88,12.2,78,17.78,0.0,1018.77,143.4
2019-08-30 13:50,50.6304516666667,-96.980815,7.1,12.5,273,991.90,12.6,76,17.77,0.0,1018.78,143.4
2019-08-30 14:00,50.630455,-96.9808016666667,7.1,11.0,270,991.98,13.0,74,17.77,0.0,1018.84,270.0
2019-08-30 14:10,50.63044,-96.9807966666667,7.9,12.3,272,991.98,13.5,71,17.75,0.0,1018.81,270.0
2019-08-30 14:20,50.6304416666667,-96.9807716666667,7.3,11.7,272,992.00,14.0,70,17.74,0.0,1018.81,270.0
2019-08-30 14:30,50.6304466666667,-96.980775,7.7,14.4,270,992.26,14.2,69,17.73,0.0,1019.04,270.0
2019-08-30 14:40,50.63047,-96.9807733333333,8.7,12.5,279,992.30,14.4,67,17.72,0.0,1019.06,270.0
2019-08-30 14:50,50.63045,-96.980775,7.5,12.2,281,992.34,14.8,66,17.72,0.0,1019.08,270.0
2019-08-30 15:00,50.6304483333333,-96.9807816666667,8.1,12.3,284,992.44,15.1,65,17.73,0.0,1019.15,293.6
2019-08-30 15:10,50.6304666666667,-96.9807916666667,7.6,12.8,277,992.65,15.4,64,17.74,0.0,1019.33,293.6
2019-08-30 15:20,50.6304516666667,-96.9807683333333,7.8,12.2,280,992.69,15.6,62,17.76,0.0,1019.34,293.6
2019-08-30 15:30,50.6304483333333,-96.9807733333333,6.6,12.0,284,992.70,16.0,60,17.77,0.0,1019.31,293.6
2019-08-30 15:40,50.63045,-96.98078,7.0,10.8,256,992.82,16.3,58,17.78,0.0,1019.40,293.6
2019-08-30 15:50,50.6304466666667,-96.98078,6.1,10.8,255,992.93,16.8,55,17.79,0.0,1019.47,293.6
2019-08-30 16:00,50.6304516666667,-96.9807816666667,5.2,9.0,265,992.97,17.4,53,17.81,0.0,1019.46,54.7
2019-08-30 16:10,50.630455,-96.980795,5.8,10.9,276,993.00,17.9,50,17.84,0.0,1019.45,54.7
2019-08-30 16:20,50.630455,-96.9807916666667,5.8,12.3,278,993.06,18.2,48,17.89,0.0,1019.48,54.7
2019-08-30 16:30,50.6304533333333,-96.9807883333333,6.9,12.4,294,993.12,18.3,47,17.95,0.0,1019.53,54.7
2019-08-30 16:40,50.630455,-96.9807883333333,8.3,14.1,291,993.22,18.4,46,17.99,0.0,1019.61,54.7
2019-08-30 16:50,50.630455,-96.9807883333333,9.6,15.3,288,993.27,18.3,46,18.00,0.0,1019.65,54.7
2019-08-30 17:00,50.630455,-96.980785,9.1,16.5,270,993.35,18.5,44,18.00,0.0,1019.71,90.0
2019-08-30 17:10,50.6304383333333,-96.980795,8.7,19.0,308,993.25,18.7,43,18.01,0.0,1019.59,90.0
2019-08-30 17:20,50.63044,-96.9807883333333,9.3,18.4,314,993.22,18.8,41,18.06,0.0,1019.54,90.0
2019-08-30 17:30,50.6304516666667,-96.9807883333333,9.8,15.0,314,993.27,18.7,40,18.09,0.0,1019.58,90.0
2019-08-30 17:40,50.6304516666667,-96.9807816666667,8.8,14.9,309,993.32,18.7,40,18.12,0.0,1019.61,90.0
2019-08-30 17:50,50.6304533333333,-96.98078,7.2,13.7,308,993.38,19.1,37,18.13,0.0,1019.62,90.0
2019-08-30 18:00,50.6304483333333,-96.9807783333333,8.6,16.3,306,993.34,19.1,36,18.13,0.0,1019.56,0.0
2019-08-30 18:10,50.6304516666667,-96.9807883333333,7.5,14.1,303,993.32,19.0,36,18.14,0.0,1019.53,0.0
2019-08-30 18:20,50.63045,-96.9807883333333,9.4,15.9,303,993.25,19.2,34,18.16,0.0,1019.45,0.0
2019-08-30 18:30,50.6304466666667,-96.98078,9.1,16.3,286,993.24,19.3,33,18.19,0.0,1019.43,0.0
2019-08-30 18:40,50.6304433333333,-96.9807883333333,10.5,16.7,314,993.25,19.5,32,18.21,0.0,1019.43,0.0
2019-08-30 18:50,50.6304366666667,-96.9807833333333,9.9,17.7,311,993.30,19.5,32,18.22,0.0,1019.47,0.0
2019-08-30 19:00,50.6304433333333,-96.9807883333333,6.4,14.8,296,993.40,19.7,31,18.24,0.0,1019.55,360.0
2019-08-30 19:10,50.63046,-96.980755,6.8,12.2,308,993.42,19.9,31,18.21,0.0,1019.57,360.0
2019-08-30 19:20,50.6304616666667,-96.9807733333333,7.6,14.4,314,993.38,20.0,31,18.14,0.0,1019.53,360.0
2019-08-30 19:30,50.630455,-96.9807766666667,7.3,12.6,313,993.35,20.0,32,18.08,0.0,1019.49,360.0
2019-08-30 19:40,50.6304533333333,-96.9807816666667,5.8,13.9,317,993.35,20.0,32,18.13,0.0,1019.48,360.0
2019-08-30 19:50,50.6304516666667,-96.9807833333333,6.3,11.7,314,993.35,20.2,32,18.29,0.0,1019.47,360.0
2019-08-30 20:00,50.6304566666667,-96.9807833333333,6.9,15.4,311,993.27,20.4,31,18.40,0.0,1019.38,0.0
2019-08-30 20:10,50.6304483333333,-96.9807783333333,6.7,12.0,315,993.32,20.3,32,18.44,0.0,1019.43,0.0
2019-08-30 20:20,50.6304483333333,-96.9807766666667,6.5,10.9,327,993.33,20.4,34,18.41,0.0,1019.42,0.0
2019-08-30 20:30,50.63045,-96.9807916666667,4.7,12.1,338,993.37,20.6,34,18.32,0.0,1019.45,0.0
2019-08-30 20:40,50.6304616666667,-96.9807816666667,7.8,11.8,329,993.39,20.2,33,18.32,0.0,1019.49,0.0
2019-08-30 20:50,50.6304583333333,-96.9807816666667,8.3,12.0,356,993.41,20.3,36,18.31,0.0,1019.50,0.0
2019-08-30 21:00,50.6304533333333,-96.9807783333333,11.3,13.8,47,993.52,19.3,51,18.24,0.0,1019.65,38.0
2019-08-30 21:10,50.63045,-96.9807766666667,11.4,14.5,51,993.63,18.8,52,18.35,0.0,1019.78,38.0
2019-08-30 21:20,50.6304483333333,-96.9807766666667,10.3,11.7,42,993.66,18.7,50,18.46,0.0,1019.81,38.0
2019-08-30 21:30,50.63045,-96.9808,9.1,10.7,48,993.65,19.0,47,18.50,0.0,1019.79,38.0
2019-08-30 21:40,50.6304566666667,-96.9807766666667,8.8,11.7,47,993.67,19.1,49,18.39,0.0,1019.79,38.0
2019-08-30 21:50,50.6304516666667,-96.9807816666667,12.2,13.6,34,993.54,19.0,49,18.29,0.0,1019.66,38.0
2019-08-30 22:00,50.63042,-96.9807783333333,11.9,15.4,38,993.57,19.0,50,18.25,0.0,1019.70,152.4
2019-08-30 22:10,50.6304383333333,-96.98079,12.8,15.5,36,993.53,18.9,48,18.17,0.0,1019.65,152.4
2019-08-30 22:20,50.6304433333333,-96.9807883333333,12.6,15.6,31,993.55,18.9,48,18.09,0.0,1019.66,152.4
2019-08-30 22:30,50.630445,-96.9807833333333,11.9,13.9,35,993.52,19.1,50,18.07,0.0,1019.64,152.4
2019-08-30 22:40,50.6304466666667,-96.9807833333333,13.1,16.0,31,993.51,19.1,50,18.06,0.0,1019.62,152.4
2019-08-30 22:50,50.6304466666667,-96.9807833333333,13.3,17.3,30,993.56,19.0,53,18.04,0.0,1019.73,152.4
2019-08-30 23:00,50.6304366666667,-96.9807833333333,15.0,17.3,25,993.61,18.8,52,18.04,0.0,1019.81,161.1
2019-08-30 23:10,50.6304166666667,-96.9807666666667,14.3,17.0,27,993.61,18.9,53,18.08,0.0,1019.81,161.1
2019-08-30 23:20,50.6304683333333,-96.980785,14.2,17.1,27,993.57,18.8,54,18.06,0.0,1019.76,161.1
2019-08-30 23:30,50.630445,-96.98076,15.0,17.3,25,993.49,18.8,54,18.14,0.0,1019.67,161.1
2019-08-30 23:40,50.63045,-96.980795,15.1,17.3,20,993.46,18.6,55,18.19,0.0,1019.66,161.1
2019-08-30 23:50,50.63046,-96.9807883333333,14.6,17.1,22,993.51,18.5,55,18.21,0.0,1019.71,161.1
